Location: *
(47.8307°S, 178.3954°E)
Time: 23:58:27
(UTC+00:00)

ATLAS 5 CENTAUR R/B - Pass Details

Date: 12 August 2024
Orbit: 411 x 1156 km, 63.3° (Epoch: 19 September)

Event Time Altitude Azimuth Distance (km) Brightness Sun altitude
Exits shadow 18:14:47 - 223° (SW) 3,306 4.8 -10.2°
Reaches altitude 10° 18:16:27 10° 215° (SW) 2,803 4.5 -10.0°
Maximum altitude 18:21:37 23° 164° (SSE) 1,816 4.0 -9.1°
Drops below altitude 10° 18:26:04 10° 111° (ESE) 2,385 5.5 -8.4°
Sets 18:28:45 0° 96° (E) 3,172 6.8 -7.9°
